sat.trackr.live / text

‹ back to catalog

SPAWAR-CAL-O

NORAD 43766 · 2018-099J

PAYLOAD ACTIVE UNKNOWN

§ Identity

Operator
Country
US
Launch date
2018-12-03
Launch site
AFWTR
Launch vehicle
Mass (kg)
RCS (m²)

External: N2YO · Heavens-Above · Gunter

§ Orbital elements

Epoch: 2026-05-25T02:46:49.762272Z

Period
93.86 min
Inclination
97.4346°
Eccentricity
0.0007981
Mean motion
15.34183484 rev/d
Perigee alt
457.9 km
Apogee alt
468.8 km
Semi-major
6,841.5 km
B*
5.4814e-4
RAAN
208.9128°
Arg perigee
25.3456°
Mean anomaly
334.8176°
Rev number
40,998

§ Raw data

SPAWAR-CAL-O1 43766U 18099J   26145.11585373  .00018095  00000+0  54814-3 0  99912 43766  97.4346 208.9128 0007981  25.3456 334.8176 15.34183484409984

JSON: /api/v1/satellites/43766 · /tle

For live sub-satellite position, see the globe view (requires WebGL).

§ Visibility from observer

Set your observer location to see the next 7 days of passes ≥ 10°. The values pass through the URL so the page stays shareable.

No JS? Fill the form by hand. The geolocation button needs JavaScript.